AirNav   Pilot Hours Calculator
 
 1361 users online  

1C5 Bolingbrook's Clow International Airport
Bolingbrook, Illinois, USA

GOING TO BOLINGBROOK?


FAA INFORMATION EFFECTIVE 05 NOVEMBER 2020

Location

FAA Identifier: 1C5
Lat/Long: 41-41-45.3000N 088-07-46.2000W
41-41.755000N 088-07.770000W
41.6959167,-88.1295000
(estimated)
Elevation: 674.9 ft. / 206 m (estimated)
Variation: 04W (2020)
Time zone: UTC -6 (UTC -5 during Daylight Saving Time)
Zip code: 60490

Airport Operations

Airport use: Open to the public
Activation date: 03/1967
Control tower: no
ARTCC: CHICAGO CENTER
FSS: KANKAKEE FLIGHT SERVICE STATION
NOTAMs facility: IKK (NOTAM-D service available)
Attendance: 0700-1800
Pattern altitude: 1504.9 ft. MSL
Wind indicator: lighted
Segmented circle: no
Lights: MIRL RY 18/36 PRESET LOW INTST DUSK-DAWN TO INCR INTST - CTAF
Beacon: white-green (lighted land airport)
Operates sunset to sunrise.

Airport Communications

CTAF: 122.9
CHICAGO APPROACH: 119.35
CHICAGO DEPARTURE: 119.35
IC: 119.35
WX AWOS-3 at LOT (5 nm S): 118.525 (815-588-4802)
WX AWOS-3 at JOT (11 nm S): 119.975 (815-730-9560)
WX ASOS at DPA (14 nm NW): PHONE 630-587-3668
WX ASOS at ARR (16 nm W): PHONE 630-466-5622
WX AWOS-3 at 06C (18 nm N): 128.275 ((847) 895-2887)
WX ASOS at MDW (18 nm E): PHONE 773-884-4424
WX ASOS at ORD (20 nm NE): PHONE 773-462-0118

Nearby radio navigation aids

VOR radial/distance  VOR name  Freq  Var
JOTr041/12.3JOLIET VOR/DME112.3002E
DPAr138/15.3DUPAGE VOR/DME108.4002E
CGTr292/27.4CHICAGO HEIGHTS VORTAC114.2002E
EONr327/29.8PEOTONE VORTAC113.2002E
OBKr196/32.5NORTHBROOK VOR/DME113.0002W

Airport Services

Fuel available: 100LL JET-A
Parking: hangars and tiedowns
Airframe service: MAJOR
Powerplant service: MAJOR
Bottled oxygen: NONE
Bulk oxygen: NONE

Runway Information

Runway 18/36

Dimensions: 3360 x 75 ft. / 1024 x 23 m
Surface: asphalt, in good condition
Weight bearing capacity: 
Single wheel: 12.5
Runway edge lights: medium intensity
RUNWAY 18  RUNWAY 36
Latitude: 41-42.031245N41-41.478230N
Longitude: 088-07.779947W088-07.758665W
Elevation: 674.9 ft.657.0 ft.
Traffic pattern: leftleft
Runway heading: 182 magnetic, 178 true002 magnetic, 358 true
Markings: nonprecision, in good conditionnonprecision, in good condition
Touchdown point: yes, no lightsyes, no lights

Airport Ownership and Management from official FAA records

Ownership: Publicly-owned
Owner: VILLAGE OF BOLINGBROOK
375 W BRIARCLIFF ROAD
BOLINGBROOK, IL 60440
Phone 630-226-8400
Manager: JOSEPH DE PAULO
130 S CLOW INTL PARKWAY
BOLINGBROOK, IL 60490
Phone 630-378-0479
EMAIL ADDRESS: JOEDEPAULO@GMAIL.COM

Airport Operational Statistics

Aircraft based on the field: 63
Single engine airplanes: 55
Multi engine airplanes: 7
Helicopters: 1
    
Aircraft operations: avg 137/day *
52% local general aviation
44% transient general aviation
4% air taxi
* for 12-month period ending 31 July 2020

Additional Remarks

A30A-18 USE RWY 18 IN CALM WND OR DRCT CROSSWINDS.
TWY 20 FT WIDE; LARGE ACFT CONSIDER BACK-TAXI.
NO TGL; FULL STOP LDG ONLY.
FOR CD CTC CHICAGO APCH AT 847-289-0926.
FLT SCHOOL OPS ONLY - 123.50.
WILDLIFE ON AND INVOF ARPT.
RESTAURANT ON ARPT.

Instrument Procedures

NOTE: All procedures below are presented as PDF files. If you need a reader for these files, you should download the free Adobe Reader.

NOT FOR NAVIGATION. Please procure official charts for flight.
FAA instrument procedures published for use from 05 November 2020 at 0901Z to 03 December 2020 at 0900z.

 
IAPs - Instrument Approach Procedures
RNAV (GPS)-B   download (175KB)
VOR-A   download (181KB)
NOTE: Special Take-Off Minimums/Departure Procedures apply   download (369KB)

Other nearby airports with instrument procedures:

KLOT - Lewis University Airport (5 nm S)
KDPA - DuPage Airport (14 nm NW)
KARR - Aurora Municipal Airport (16 nm W)
KMDW - Chicago Midway International Airport (18 nm E)
KORD - Chicago O'Hare International Airport (20 nm NE)
 
Loc | Ops | Rwys | IFR | FBO | Links
Com | Nav | Svcs | Stats | Notes
Area around 1C5 (Bolingbrook's Clow International Airport)
 
Road maps at: MapQuest Bing Google
 
Aerial photo
WARNING: Photo may not be current or correct
Aerial photo of 1C5 (Bolingbrook's Clow International Airport)
Taken in 2016
looking southeast.

Do you have a better or more recent aerial photo of Bolingbrook's Clow International Airport that you would like to share? If so, please send us your photo.

 
Sectional chart

 
Airport distance calculator
Flying to Bolingbrook's Clow International Airport? Find the distance to fly.

From to 1C5

Sunrise and sunset
Times for 25-Nov-2020
 Local
(UTC-6)
 Zulu
(UTC)
Morning civil twilight06:2512:25
Sunrise06:5612:56
Sunset16:2422:24
Evening civil twilight16:5522:55

Current date and time
Zulu (UTC)  25-Nov-2020 18:50:14
Local (UTC-6)  25-Nov-2020 12:50:14
 
METAR
KLOT 
5nm S 
251835Z AUTO 08003KT 3SM -RA OVC005 08/08 A2972 RMK AO2 P0001 T00770077
KJOT 
11nm S 
251835Z AUTO 00000KT 2 1/2SM +DZ OVC005 09/09 A2972 RMK AO2 T00900086
KDPA 
14nm N 
251822Z 02006KT 3SM -RA BR BKN005 BKN014 OVC045 08/07 A2971 RMK AO2 P0006 T00780067
KARR 
16nm W 
251841Z 04007KT 10SM BKN005 OVC016 08/08 A2971 RMK AO2 RAE09 P0000 T00780078
K06C 
18nm N 
251835Z AUTO 02004KT 4SM OVC003 07/07 A2971 RMK AO2 P0008 T00740070
KMDW 
18nm E 
251808Z 04007KT 3SM -RA BR BKN005 OVC009 08/07 A2971 RMK AO2 P0000 T00780067
KORD 
19nm NE 
251751Z 06007KT 2SM RA BR OVC005 08/06 A2973 RMK AO2 SLP069 P0012 60027 T00780061 10083 20072 58018
TAF
KDPA 
14nm N 
251730Z 2518/2618 08006KT 2SM RA BR OVC004 FM252100 02006KT 3SM -SHRA BR OVC004 FM260200 35006KT 5SM -DZ BR OVC005 FM260600 30007KT 6SM BR OVC007 FM261100 29005KT P6SM OVC006 FM261600 25008KT P6SM OVC013
KMDW 
18nm E 
251730Z 2518/2624 09006KT 2SM RA BR OVC004 FM252100 03006KT 3SM -SHRA BR OVC004 FM260200 35006KT 5SM -DZ BR OVC005 FM260600 30007KT 6SM BR OVC007 FM261600 25009G15KT P6SM OVC010 FM262300 22009KT P6SM SCT060
KORD 
19nm NE 
251730Z 2518/2624 09006KT 2SM RA BR OVC004 FM252100 03006KT 3SM -SHRA BR OVC004 FM260200 35006KT 5SM -DZ BR OVC005 FM260600 30007KT 6SM BR OVC007 FM261600 25009G15KT P6SM OVC010 FM262300 22009KT P6SM SCT060
NOTAMs
Click for the latest NOTAMs
NOTAMs are issued by the DoD/FAA and will open in a separate window not controlled by AirNav.

 

 
 

FBO, Fuel Providers, and Aircraft Ground Support

  
 Business Name 
 
 Contact 
 
 Services / Description 
 
Fuel Prices
 
Comments
  
JW Aviation 630-759-1555
[web site]
[email]
Aviation fuel, Aircraft parking (ramp or tiedown), Hangars, Flight training, Aircraft rental, Aerial tours / aerial sightseeing, Pilot supplies, Flying club, ...

More info about JW Aviation
Phillips 66
100LL Jet A
SS $3.94 $3.40 
 Updated 27-Aug-2020
 
   2 read write
SS=Self service
Update Fuel Prices
 

Where to Eat: Catering, Restaurants, Food shops

  
 Business Name 
 
 Contact 
 
 Services / Description 
 
Distance
 
Comments
  
Charlie's at 1C5 630-771-0501
no information available

If you are affiliated with Charlie's at 1C5 and would like to show here your services, contact info, web link, logo, and more, click here
on airport  
   2 read write
 

Would you like to see your business listed on this page?

 If your business provides an interesting product or service to pilots, flight crews, aircraft, or users of the Bolingbrook's Clow International Airport, you should consider listing it here.  To start the listing process, click on the button below
 
Add a business
 

Other Pages about Bolingbrook's Clow International Airport

bbclowairport.com
 
Update a link
 
Copyright © AirNav, LLC. All rights reserved. Privacy Policy  Contact